"Pseudo-MPEC" for P21VBPl

Created 2024 Jul 11 11:22:05 UT using Find_Orb

Click here for an explanation of pseudo-MPECs

 
 Astrometry: 
     P21VBPl  C2020 09 18pgkKUNJ+OwHZ,BP1h,MLvpAX/[NAstrometrysNyDgaJB5t'?K*SF51
     P21VBPl  C2020 09 181L^voj$Agty]QM0L$mhNi#qBMUP9[45PX9KyhAxKs%\S,bWyP`CTF51
     P21VBPl  C2020 09 18:PDI]*nr[M2,N%%G^aTjJ1DKg.B[_f*?Ih4uI;a0A;8A9_(m),$MF51
     P21VBPl  C2020 09 18a*noL).lg(oVjY1Ri,m'-h@Fq3OWlWP%hVcvHP$=`ta@_m/l;7S)F51
     P21VBPl  C2020 09 22WyTE(279*g?rC(oE2MbsH#m-qSfm,o%_JJh6;[@(9%\bJI5fv7iiF51
     P21VBPl  C2020 09 22y:kR__PxTh@j)deVWj9?:/Z8#'yrRx1kN)i(q0LTf7?Bnc5hWQw7F51
     P21VBPl  C2020 09 23iQ;pQ3C)1.N:8=B/'om`76T!KB2WsJFK?=VR`_=n3W,*Tp2#hYc%F51
     P21VBPl  C2020 09 23I=O:m,g=R86IHBc-_Xtq%Khk(VJk\Nb#V//D;6pe_8NFx`uIYNGEF51
     P21VBPl  C2021 08 16VXI!nw=dtNcrT%bKj!crH;YCdlwlmvHKEI?wA^Qo2;g@t)k+/6S$F51
     P21VBPl  C2021 08 16IPC;'5/#84;.S\l+Q$rDtj8-S(:1RDTmKDV(\k^wy8Zkw1Iw^GK`F51
     P21VBPl  C2021 08 167=mDE-Vw+0EVT!86FPhyhHD?3mpq;AW,^$Q*e-[pqL\\o^\7,1tNF51
     P21VBPl  C2021 08 31'EC#WO;[ZyGg[=9;xeQ[he@JW*h2I/LW_h8sA9;1Tr/s#KTkkNoHF52
     P21VBPl  C2021 08 31UT6/f_/vf@5.YbOr#,)W$8P[_M/gv1BPG,q`oGL66ZIxdup%3tqUF52
     P21VBPl  C2021 09 10i#\RjYcg/dMZ%v'+2=@5*1rj+Na#]+Z@7%S!l?swDoXP\vpKlT\dF52
     P21VBPl  C2021 09 10TLI\hM?sa90fleX/_+`)U37n]`ky$EK('redacted;mU!@:+]-poF52
     P21VBPl  C2021 09 10p/!0mVNGCc]/b/hjj[ykVo,aRm1HcA#M4Y!nZxfw6v:x_\BOquuMF52
     P21VBPl  C2021 09 10j'4wNFykgU5sIIr6Fbf`:KB\T:WOg!0VR8Q)C-GxBuGkG7l/#RI(F51
     P21VBPl  C2021 09 13O+]CfdqQ@$iv/Ms=Nq9Is_p0Q%4]Nf3S/)@tUKnY:EhA_p6y?c86F51
     P21VBPl  C2021 09 13sioaDXm11;+PJVy)KDKl1,d\oLiEA*K?brQNOF3YpjXSoV$;MiXYF51
     P21VBPl  C2021 09 13SnO/@rT;Z[?,fm[f;6JMCs^Gi17!DDosTikb*Hv?A)_h%H3;s;^FF51
     P21VBPl  C2021 09 27S`5dQ6.u_\)N'F3OvRJY88xqa134KZY1Jwb``8FBuNIuaSrn#Q`OF52
     P21VBPl  C2021 09 27W#;j7uKU'uRDclick68\641d^-kYtH0Zd:7A/\2*R8_Y3lW#*99?F52
     P21VBPl  C2021 10 07%XWf8HE2JUF5I70Xsw=%5V_HS0sLi+]UC_///UD3m/k@`bFu?_wgF51
     P21VBPl  C2021 10 11UWte+.6]c4B=CRMSP`F_+@EHftg%L.[))Fh]U%Ar9c66;=iFWi_dF51
     P21VBPl  C2021 10 11_dPYQV+`7iC71F6!s)e/tZL=]-fyq%d!^o1DUgRnx3:i4gLSvF4dF51
     P21VBPl  C2021 10 11n_K49v9#wRrcv(e=43oG(^6oeileWH)bTn!*.$\:PEjXd-GxVH;^F51
     P21VBPl  C2021 10 11uZ(AE9jO?R]4SBv1$ja#ZtgAAewiEl(AL0bLI,UC^l174a8Qdo1^F51
     P21VBPl  C2021 11 07]RYOHHB*CH:+t8OaPBrBVYDId.uFU'YXV\ZRf#U'bOETY`+!2M1EF51
     P21VBPl  C2021 11 07K4/Z-*Z1:tAPTN1)wt2B(k\3Fn:29fH-,4J=(x9X-Au$rl6ou\+bF51
     P21VBPl  C2021 11 07\Wn9wIwVHeZ@n3Y@U8$(_nQ4*\Pg\-5P*^l[o:GOZomu\GQOKYhtF51
     P21VBPl  C2022 06 290$lRk):[Yx?KZ4?[T*ZG%qo0tChn-jMTvr]jSpihereMu#;:8YnBF52
     P21VBPl  C2022 06 29np!?e2?9/-b=Q5K'-br;X;hS]G0=p,ef-*+s#D)0,;A%B)g:xyU@F52
     P21VBPl  C2022 06 29RM#S7tIC_5QC@$Fea0KaKG@n*-b(,8E%l]T;Z9+17K67jQH9s=3AF52
     P21VBPl  C2022 07 31GA*O'Qt!0@8d[sX@*oFt,6L.,?\I,#pM-y/c*)eoI#Y^vkY[:%/!F52
     P21VBPl  C2022 07 31o5/.k%;oPBV)Q@h4+]7.pP_bc@hO#]e39MXsh'#1^,$N+c1vK(0jF52
     P21VBPl  C2022 07 31iPFWZJoy7bLI[;Q^5Evms'0_X[g^l1(v1_V[.ULq(PRw'k#pjS=cF52
     P21VBPl  C2022 08 21[MHmbiQ.TY+fs;!'q(xSX+*_Pa/@:L]uS`hoOt$*-/p$KbuS:(1yF51
     P21VBPl  C2022 08 212JOsYI4_-clm,bvZ@g)PH-d]/$eAXRE-KYW9#e1/'-iGh0*X7tvtF51
     P21VBPl  C2022 08 29^!:%YlJ@=)QWo4Awh@IVP-NcD#_sa:3@M%jHvNy-*oA%Or'=8*sCF51
     P21VBPl  C2022 08 297`[%y.fnA,AFPCwXC*lAAxH9k,f4ChNYGMggucMq/$:,6]kSOqNKF51
     P21VBPl  C2022 09 02oQd`]PN[?:f*[TYD'P._knP(_]XV1)LbGfw;[pqO]Udk5/Leqf0eF52
     P21VBPl  C2022 09 029Kyq'dT-'!N'RCbI:k,JUQ_dW$[C5!9NL8y-WSo^.Ce`@'/4ro^MF52
     P21VBPl  C2022 09 02ClX'U7(oe.-dqeYbg?(n)@R!H-x:eu@7$5V2w@(;kmrJU_D7.'T(F52
     P21VBPl  C2022 09 023UP@-D+.@yxoVdFvmB:4lJMja5q;+JnKXm1@3k?1:uuaLBWH]k:aF52
     P21VBPl  C2022 09 16r+.VaBNgTAxNTCn?]C;xI7UqNf5sq8['0ai,iVa1.i?+]9h[TA^EF51
     P21VBPl  C2022 09 16vVtwBcpm!+teF=r5M35@@:3cOA*3fZC`WeJ'2%2akX$=H,PHA,BFF51
     P21VBPl  C2022 09 16UYuvcccC,#UL'\^-IER[$o)0E,+QNGR^'4CjQAQUv#62aC5aOq?DF51
     P21VBPl  C2022 09 16T)C`4ui\''.;`SG[*V1-lwHj3c?^(d81aSF\v\=#xr8Y?M=O^JB\F51
     P21VBPl  C2022 09 26L2I6+-rIy*1,*G(@e_rk2e$+8A[Qk#3qi6-twxvd/)nVehuK`f]KF51
     P21VBPl  C2022 09 26DhdeI;0((or5DooBkYQN'a:o]?0#V[Hxy3H:D(vRnovcer/x#7d+F51
     P21VBPl  C2023 05 31O!J_Yu'%tn'5lcer;ZhkwSc,+@x1_);`TT?4OmJoN9a8$4S8E6/bF51
     P21VBPl  C2023 06 19v:)NhXA(2u%nOKBh3ZFGh_#gOfO%XT,2')xW+R6aFe3C-WS!El$2F52
     P21VBPl  C2023 06 19Aj!Jt/1OAlXs#=K9$L$ko1k?l1pl-:..e]qP28BDeFaj_?1eOlHIF52
     P21VBPl  C2023 06 19rZsdA4s)S0)Bl%fWK'GeF)1)2hO[7Go0f6x9sQIs4ken1vs8w^8;F52
     P21VBPl  C2023 06 19A$y.lNi]P8m(F/!QXN@#m4hC-Z@Fr6gviuB=%G0Mc8sLmJ^AD;4XF52
     P21VBPl  C2023 06 20)W@cRf6B-f1]/(UhPf;mXh@Lm$G7@6p#G6AyVWu=C,,50u?forv6F52
     P21VBPl  C2023 06 202.%,4r1\c+rYb?I)sY`nw^!Qjjae/7Vu[(4-mpJRB*:b-D5A^)B^F52
     P21VBPl  C2023 06 20Ig(eRkV.gVCIk*aUH*9bFF`[gE_AWc._N;+*IL;Gu,Qkm,9QEUwFF52
     P21VBPl  C2023 06 202g;+'6bDE!r`,VcXq0-WRKHkVH!TH=@i2KJHgnmi@-OwKbH5oQH+F52
     P21VBPl  C2023 06 27Tmano$e6mw;F)fmr-U!^Zc,oYfG[q!(3WQ(5pr\nhTnqA;CNJD2*F52
     P21VBPl  C2023 06 27.rTA_!V0V8wgiZ`R8.@mVk4K4v3(ZA495r$Ed!2T[hnh'Vbt2Tb7F52
     P21VBPl  C2023 06 27hX3!`nv:(8.rd2qOg^]#L+k-;S''aCPUR+;\0\N.m*BqdYNjsxY'F52
     P21VBPl  C2023 06 27Y`h#$rX0$N0:8mhV![`[W1E6`6.Yhg`GM)J,!]%e's#Nb3)CMeU^F52
     P21VBPl  C2023 07 16dkxTT2BALjIUn/W+K6p,0MZL:dogOJL9p$HJjjE=4HL)W)4]t_i*F52
     P21VBPl  C2023 07 16fJV'4%nc*tVTSXXCI#`7L3@]p/@jH0Nh4^oHeHluET4i#7)n=pi!F52
     P21VBPl  C2023 07 24gxu1_`hsx8u0`\tH6.kmta=kPr2(HC\-]%[6=V,MqK)SyQC.vj.KF51
     P21VBPl  C2023 07 24Q%\R(T%!a=vSC-_J$d-1d_TL5D4`OmV1E^Pyd+;[1k4.xM28?3VXF51
     P21VBPl  C2023 07 24A(nepT;c1cI0bg;WHI6hGd$V@72RYnFxdUm'@Nji^-1TdY4gp#i4F51
     P21VBPl  C2023 07 28#mjw^VPqJPph+=I%k:o*GZ8e9LSc)BQaiA^MwhE!?oC$2m*$-Sb.F52
     P21VBPl  C2023 07 283sD0uqk=/?nxdJqYmOE`YIGf1/ye)Zlc$fSMWp\v?4:i_M\5swHvF52
     P21VBPl  C2023 07 28x5b.4MkH?Tu@ZHR*_NIsClYp)HipfX+Nft!1Bu@Ip:]slgXu7+)4F52
     P21VBPl  C2023 08 202f$l]DKBLkMW9wM7yF^fXYWcw;(eMHit+gy(9DxA!kCR-pj`p('(F51
     P21VBPl  C2023 08 20a8l^SNI[vmU\4.NRoT.l`o=*Vg27psO1)j5@(sV'tD37mgy`(n#2F51
     P21VBPl  C2023 08 20$jE;`EP(FeFAG?w=L3=/Uo]0LI5=n*Wg)4=14\WU]P-T*3pPMludF51
     P21VBPl  C2023 08 20VH3E?\*PI3@ESVb9-Im7\d/fj6X?TiAh4:Jks,/9Qo-%bn(U`esIF51
     P21VBPl  C2023 09 17+c`d]:-X\us`:d3FMQjO8I7-QmGpfp*0@A%'yarp65pGbE`1]G*nF52
     P21VBPl  C2023 09 17gpdCTu=uDO;!=q8-gV#5O)_vyij@:.cH]Zx]XMSYNJP@1qPh,Hk5F52
     P21VBPl  C2023 09 17+*1+NU%hdCjG#h_\oloxErNI#Ka8Wl$@YubwRyBu8XD*MvFLoNBrF52
     P21VBPl  C2023 09 17EyC,8TRpJr)FZ'dgZ`r`E]qR+n$Pm!6_ViUZ;_v@E=+YrJsNoV*AF52
     P21VBPl  C2023 09 17b55@?\BVBxywX:696V^-Vi@(m:V=Ja^gPM-p/O+'%):?sS0P7=`8F51
     P21VBPl  C2023 09 17it,y7V:OwkV_;ehAKpF.0e'=OWTmr4_abk:S!U(y8^;XL6)v67`UF51
     P21VBPl  C2023 11 05#+PWxHF]c.(#b)XD(2]@';G=DwS5^cSan)slQ?)nM1ri:*hw=%qDF51
     P21VBPl  C2023 11 05@rpI-T2`oDhLO-/D5@X5FFf=K]bEVX=[JZneON/!^%0(n+xMtEM:F51
     P21VBPl  C2023 11 05bSQ$xa\pgtGf_Q:nIo-(Z5w?4$m3Q-O*8T]jSgbMi(3tC[ClhKXEF51
     P21VBPl  C2023 11 05F8Y2y.8Sla,YI4R!vO6su%E]!G]\:nm$d_uQ\$e_lgkGd@^]pc\rF51
     P21VBPl* C2024 06 158s]t3SB[1`@,XLB]7()XMQvH5ZRp6,b/C6wPXXasRHQ$jhoLrN#JF52
     P21VBPl  C2024 06 15Hl^@D/V*q?'bW@Nrm'@E_e3Uk_]Eb-GTFgRUw\=chYtc.mVi3!(RF52
     P21VBPl  C2024 06 15i]xNtC7(kEN2x]0Zc'x,`roH?%k-'t_J1]x,[ih583SGp)yDLKFkF52
     P21VBPl  C2024 06 15Q8xXf8(wOZ)0JKj_g)rt_skCsGgEsg6JYi(E'dw0xZAH,1-snYH.F52
     P21VBPl  C2024 06 16SmQL:rK3_;]?*?e];v\vq*(\lU+K#9XpD^1cx!%\tcU9)9T%OPPYF52
     P21VBPl  C2024 06 16Xf%4q+k0cTMJe%Da.qm7dHp9RLefRS^]DH`WVg'vG-@bbNYU?CW5F52
     P21VBPl 6C2024 06 18\d5cO;(:Rb,Ascb!9/bYr$b+4'Ok=eU,N^bCfOG?\B8y*m8n0qfhZ84
     P21VBPl 6C2024 06 18YKaTHX@WH'F\]u)VWKoV0H$@DoSoqnJsLDQEFmLlOch3@y8i0H+XZ84
     P21VBPl 6C2024 06 18fxJ[,t,D'hWL4$R[S;I@[HYJXexplanation[07bvif1u`=P*wWLZ84
     P21VBPl 3C2024 06 29.);2[v@Py`2Gs6ZUFKqvn]-DD%t(QU14pCoFcyE$1Fw,+#ya`D_eT14
     P21VBPl 3C2024 06 29gBIB-]l*,lH+7Lq^#s0uJ3N$NiH3.fUP5Q7LDBXjjc(pZ@s-8))bT14
     P21VBPl 3C2024 06 29q1fyhg/.B9wsQIqM'b=kjg%d`3Dp?;'+n\N[E\#8ZwC)np1VgVT5T14
     P21VBPl  C2024 07 03doHA9r`.TE6s^5V;MjlKs;A^qcnLq*jf,e%%K33qj#D(8TC?D6jrF51
     P21VBPl  C2024 07 03QfVOK(F/sgo^lNdZa5$d3,VhOvf?@^p,os5tU6)(#xAoM+)ht-S-F51
     P21VBPl  C2024 07 039/uC_bYfo,VCalLDo%e,ptj/'Q#kMF*ibdCAQm'-6CS=gHvRf\h0F51
     P21VBPl  C2024 07 03FRlwU]$UAG=,k978tD(=wy^yuj?1FbBl:4DIKXlJOxoh5ac3iZdiF51
     P21VBPl  C2024 07 04s=c]P0yLV9`TeWNW'#0PFy7/gC+IIhZ`j_jR*UnIfvZGyjwEDh.1F51
     P21VBPl  C2024 07 04n,rH?`\%XL'p`6/:iIn49XhC6.9.0YHG8MW\TMBjl+F`uITc#nAkF51
     P21VBPl 6C2024 07 09J\2Wjvj9C)sq`0%g,J38ptgtNPwvKCi%2Ick`N6Wh7U,aCD1=e_EZ84
     P21VBPl 6C2024 07 09;]B@Zvc_cd.L/%f];DKo5Z!v#Fat1G@'^!8e#!)e'8DnO_lT.'40Z84
     P21VBPl 6C2024 07 09Wl0fAe,IH$A;CxpLRbFGl!0si@*[PHLB.NE1,gL)ev/)NMlNNn@OZ84

Station data:
(F51) Pan-STARRS 1, Haleakala  (N20.707234 W156.255910)  US/Hawaii.
   Observers J. Bulger, T. Lowe, A. Schultz, M. Willman. Measurers K.
   Chambers, S. Chastel, T. de Boer, L. Denneau, J. Fairlamb, H. Flewelling,
   M. Huber, C.-C. Lin, E. Magnier, Y. Ramanjooloo, R. Wainscoat, R. Weryk.
   1.8-m Ritchey-Chrétien + CCD.
(F52) Pan-STARRS 2, Haleakala  (N20.707382 W156.255910)  US/Hawaii.
   Observers J. Bulger, T. Dukes, T. Lowe, A. Schultz, M. Willman. Measurers
   K. Chambers, S. Chastel, T. de Boer, L. Denneau, J. Fairlamb, H.
   Flewelling, M. Huber, C.-C. Lin, E. Magnier, Y. Ramanjooloo, R. Wainscoat,
   R. Weryk. 1.8-m Ritchey-Chrétien + CCD.
(T14) Mauna Kea-UH/Tholen NEO Follow-Up (CFHT)  (N19.825252 W155.468876)
   US/Hawaii.  Observer R. Weryk. 3.6-m Canada-France-Hawaii Telescope.
(Z84) Calar Alto-Schmidt  (N37.224046 W2.548210)  Spain.  Observer R. Kresken.
    Measurers E. Schwab, D. Koschny, M. Micheli. 0.8-m f/3 Schmidt + CCD.

Orbital elements:  P21VBPl
   Perihelion 2028 May 25.19353 +/- 0.00715 TT =  4:38:41 (JD 2461916.69353)
Epoch 2024 Jul  9.0 TT = JDT 2460500.5   Sa: 0.2206              AutoNEOCP
M 356.98383472 +/- 0.00028          (J2000 ecliptic)
n   0.00212976 +/- 1.94e-7          Peri.  208.58264 +/- 0.00044
a  59.8293609 +/- 0.00364           Node   116.78721 +/- 0.000038
e   0.8382347 +/- 9.38e-6           Incl.  146.08760 +/- 0.000027
P 462.78                   H 11.01  G  0.15   U  2.4
q 9.67831399 +/- 5.31e-5    Q 109.980407 +/- 0.00724
From 106 observations 2020 Sept. 18-2024 July 9; mean residual 0".14
Residuals in arcseconds: 
200918 F51  .15+  .05-    220821 F51  .20-  .25-    230820 F51  .05-  .20+    
200918 F51  .32+  .01+    220821 F51  .17+  .00     230820 F51  .12-  .27-    
200918 F51  .02-  .28-    220829 F51  .08-  .10+    230820 F51  .27-  .16+    
200918 F51  .01-  .02-    220829 F51  .02-  .14+    230917 F52  .07+  .25+    
200922 F51  .12+  .18+    220902 F52  .01-  .04-    230917 F52  .12+  .17+    
200922 F51  .04+  .20+    220902 F52  .06-  .16+    230917 F52  .04+  .04-    
200923 F51  .11+  .13-    220902 F52  .16-  .08-    230917 F52  .05+  .04-    
200923 F51  .17+  .38-    220902 F52  .07+  .07+    230917 F51  .02+  .02+    
210816 F51  .07-  .11-    220916 F51  .23-  .04+    230917 F51  .03+  .03-    
210816 F51  .00   .20-    220916 F51  .31+  .43-    231105 F51  .01+  .04+    
210816 F51  .05+  .11+    220916 F51  .17+  .08-    231105 F51  .12-  .00     
210831 F52  .08+  .13-    220916 F51  .07+  .02-    231105 F51  .01+  .01+    
210831 F52  .00   .41+    220926 F51  .03-  .19+    231105 F51  .04+  .09-    
210910 F52  .05+  .14+    220926 F51  .06-  .01-    240615 F52  .04-  .06-    
210910 F52  .01+  .03+    230531 F51  .04-  .12+    240615 F52  .08-  .07+    
210910 F52  .57-  .28-    230619 F52  .26-  .12-    240615 F52  .03-  .16-    
210910 F51  .03+  .04+    230619 F52  .05+  .01+    240615 F52  .02-  .02-    
210913 F51  .01+  .19+    230619 F52  .05-  .02+    240616 F52  .07+  .06-    
210913 F51  .08-  .14+    230619 F52  .12-  .09+    240616 F52  .05+  .05+    
210913 F51  .16-  .11+    230620 F52  .10+  .01-    240618 Z84  .03-  .10+    
210927 F52  .03-  .13-    230620 F52  .15-  .02+    240618 Z84  .03-  .23-    
210927 F52  .11+  .20+    230620 F52  .09+  .07+    240618 Z84  .04+  .26-    
211007 F51  .01-  .03+    230620 F52  .13-  .04+    240629 T14  .04+  .06-    
211011 F51  .06+  .07+    230627 F52  .16+  .03-    240629 T14  .06-  .02-    
211011 F51  .22+  .07-    230627 F52  .17-  .14+    240629 T14  .01-  .05-    
211011 F51  .09-  .09+    230627 F52  .05-  .13-    240703 F51  .03+  .04+    
211011 F51  .03+  .11-    230627 F52  .00   .10+    240703 F51  .10+  .05+    
211107 F51  .01-  .04+    230716 F52  .02+  .25+    240703 F51  .09+  .03-    
211107 F51  .32-  .12-    230716 F52  .06+  .01+    240703 F51  .01-  .17-    
211107 F51  .16-  .23-    230724 F51  .02-  .14+    240704 F51  .06+  .02-    
220629 F52  .02-  .30+    230724 F51  .29+  .25-    240704 F51  .07+  .35+    
220629 F52  .30-  .16+    230724 F51  .14+  .08-    240709 Z84  .06-  .20+    
220629 F52  .03+  .09-    230728 F52  .15+  .00     240709 Z84  .01+  .00     
220731 F52  .13+  .05-    230728 F52  .12+  .08-    240709 Z84  .07+  .08+    
220731 F52  .06-  .35-    230728 F52  .15+  .22+    
220731 F52  .07-  .02-    230820 F51  .04-  .11-    

Ephemerides (geocentric):
Date (UTC) HH   RA             Dec           delta  r     elong  mag " sig PA
---- --------  ------------   ------------  ------ ------ -----  --- --------
2024 07 11 11  21 15 03.725   -00 09 13.90  11.090 11.938 145.1 21.9 2.9m 107
2024 07 11 12  21 15 02.779   -00 09 19.12  11.090 11.938 145.2 21.9 2.9m 106
2024 07 11 13  21 15 01.832   -00 09 24.34  11.089 11.938 145.2 21.9 2.9m 106
2024 07 11 14  21 15 00.885   -00 09 29.56  11.089 11.938 145.2 21.9 3.0m 106
2024 07 11 15  21 14 59.938   -00 09 34.79  11.088 11.938 145.3 21.9 3.0m 105
2024 07 11 16  21 14 58.990   -00 09 40.02  11.088 11.938 145.3 21.9 3.0m 105
2024 07 11 17  21 14 58.042   -00 09 45.26  11.087 11.938 145.4 21.9 3.1m 105
2024 07 11 18  21 14 57.093   -00 09 50.50  11.087 11.937 145.4 21.9 3.1m 105
2024 07 11 19  21 14 56.145   -00 09 55.74  11.086 11.937 145.4 21.9 3.1m 104
2024 07 11 20  21 14 55.196   -00 10 00.99  11.086 11.937 145.5 21.9 3.1m 104
2024 07 11 21  21 14 54.246   -00 10 06.24  11.085 11.937 145.5 21.9 3.2m 104
2024 07 11 22  21 14 53.296   -00 10 11.49  11.085 11.937 145.6 21.9 3.2m 104
2024 07 11 23  21 14 52.346   -00 10 16.75  11.084 11.937 145.6 21.9 3.2m 103
2024 07 12 00  21 14 51.396   -00 10 22.02  11.084 11.937 145.6 21.9 3.3m 103
2024 07 12 01  21 14 50.445   -00 10 27.28  11.083 11.937 145.7 21.9 3.3m 103
2024 07 12 02  21 14 49.494   -00 10 32.55  11.083 11.936 145.7 21.9 3.3m 103
2024 07 12 03  21 14 48.542   -00 10 37.83  11.082 11.936 145.7 21.9 3.4m 102
2024 07 12 04  21 14 47.590   -00 10 43.11  11.082 11.936 145.8 21.9 3.4m 102
2024 07 12 05  21 14 46.638   -00 10 48.39  11.081 11.936 145.8 21.9 3.4m 102
2024 07 12 06  21 14 45.686   -00 10 53.68  11.081 11.936 145.9 21.9 3.4m 102
2024 07 12 07  21 14 44.733   -00 10 58.97  11.080 11.936 145.9 21.9 3.5m 102
2024 07 12 08  21 14 43.780   -00 11 04.26  11.080 11.936 145.9 21.9 3.5m 101
2024 07 12 09  21 14 42.826   -00 11 09.56  11.080 11.936 146.0 21.9 3.5m 101
2024 07 12 10  21 14 41.872   -00 11 14.86  11.079 11.936 146.0 21.9 3.6m 101
2024 07 12 11  21 14 40.918   -00 11 20.17  11.079 11.935 146.1 21.9 3.6m 101
2024 07 12 12  21 14 39.964   -00 11 25.48  11.078 11.935 146.1 21.9 3.6m 101
2024 07 12 13  21 14 39.009   -00 11 30.79  11.078 11.935 146.1 21.9 3.7m 100
2024 07 12 14  21 14 38.053   -00 11 36.11  11.077 11.935 146.2 21.9 3.7m 100
2024 07 12 15  21 14 37.098   -00 11 41.43  11.077 11.935 146.2 21.9 3.7m 100
2024 07 12 16  21 14 36.142   -00 11 46.75  11.076 11.935 146.3 21.9 3.8m 100
2024 07 12 17  21 14 35.186   -00 11 52.08  11.076 11.935 146.3 21.9 3.8m 100
2024 07 12 18  21 14 34.229   -00 11 57.41  11.075 11.935 146.3 21.9 3.8m 100
2024 07 12 19  21 14 33.272   -00 12 02.75  11.075 11.935 146.4 21.9 3.9m  99
2024 07 12 20  21 14 32.315   -00 12 08.09  11.074 11.934 146.4 21.9 3.9m  99
2024 07 12 21  21 14 31.357   -00 12 13.44  11.074 11.934 146.5 21.9 3.9m  99
2024 07 12 22  21 14 30.400   -00 12 18.78  11.073 11.934 146.5 21.9 3.9m  99
2024 07 12 23  21 14 29.441   -00 12 24.14  11.073 11.934 146.5 21.9 4.0m  99
2024 07 13 00  21 14 28.483   -00 12 29.49  11.072 11.934 146.6 21.9 4.0m  99
2024 07 13 01  21 14 27.524   -00 12 34.85  11.072 11.934 146.6 21.9 4.0m  98
2024 07 13 02  21 14 26.565   -00 12 40.22  11.072 11.934 146.6 21.9 4.1m  98
2024 07 13 03  21 14 25.605   -00 12 45.58  11.071 11.934 146.7 21.9 4.1m  98
2024 07 13 04  21 14 24.645   -00 12 50.96  11.071 11.933 146.7 21.9 4.1m  98
2024 07 13 05  21 14 23.685   -00 12 56.33  11.070 11.933 146.8 21.9 4.2m  98
2024 07 13 06  21 14 22.725   -00 13 01.71  11.070 11.933 146.8 21.9 4.2m  98
2024 07 13 07  21 14 21.764   -00 13 07.09  11.069 11.933 146.8 21.9 4.2m  97
2024 07 13 08  21 14 20.802   -00 13 12.48  11.069 11.933 146.9 21.9 4.3m  97
2024 07 13 09  21 14 19.841   -00 13 17.87  11.068 11.933 146.9 21.9 4.3m  97
2024 07 13 10  21 14 18.879   -00 13 23.27  11.068 11.933 147.0 21.9 4.3m  97